Regional Weather Roundup
Issued by NWS State College, PA

Home | Current Version | Previous Version | Text Only | Print | Product List | Glossary On
Versions: 1 2 3 4 5 6 7 8 9 10 11 12 13 14 15 16 17 18 19 20 21 22 23 24 25 26 27 28 29 30 31 32 33 34 35 36 37 38 39 40 41 42 43 44 45 46 47 48 49 50
000
ASUS41 KCTP 201710
RWRCTP

REGIONAL WEATHER ROUNDUP
NATIONAL WEATHER SERVICE STATE COLLEGE PA
1200 PM EST SAT DEC 20 2014

Note: "fair" indicates few or no clouds below 12,000 feet with no
significant weather and/or obstructions to visibility.

* = STATION THAT DOES NOT REPORT PRECIPITATION /E.G. RAIN...SNOW...ETC/
    THUNDER OR FOG.

PAZ002>004-007>009-013>016-020>023-029>032-201800-
WESTERN PENNSYLVANIA

CITY           SKY/WX    TMP DP  RH WIND       PRES   REMARKS
ERIE           CLOUDY    30  21  69 E5        30.28F
MEADVILLE      CLOUDY    28  20  71 NW5       30.23F
FRANKLIN*      CLOUDY    27  19  74 NE3       30.24F
NEW CASTLE       N/A     29  20  69 CALM      30.28F
BEAVER COUNTY  CLOUDY    30  21  69 CALM      30.25F
BUTLER*        CLOUDY    27  19  74 CALM      30.26F
PITTSBURGH INT CLOUDY    29  19  66 N3        30.25F
PITTSBURGH     PTSUNNY   30  16  56 CALM      30.24F
INDIANA*       CLOUDY    28  21  74 CALM      30.26F
LATROBE        PTSUNNY   28  19  69 CALM      30.26F
WASHINGTON CO* NOT AVBL
$$

PAZ004>006-010>012-017>019-024>028-033>037-041-042-045-046-049>053-201800-
CENTRAL PENNSYLVANIA

CITY           SKY/WX    TMP DP  RH WIND       PRES   REMARKS
BRADFORD       CLOUDY    23  18  81 W5        30.18S
DUBOIS         CLOUDY    25  20  81 N3        30.19F
CLEARFIELD     CLOUDY    26  18  71 E3        30.22F
JOHNSTOWN      PTSUNNY   25  19  78 CALM      30.15F
ALTOONA        PTSUNNY   28  20  71 W5        30.21F
STATE COLLEGE  CLOUDY    27  19  74 NW6       30.23F
WILLIAMSPORT   CLOUDY    33  20  58 N5        30.25F
SELINSGROVE    CLOUDY    32  21  64 CALM      30.27F
FT INDIANTOWN  CLOUDY    32  20  60 VRB3      30.26F
CAPITAL CITY   CLOUDY    33  20  58 NW5       30.28F
HARRISBURG     CLOUDY    34  21  59 CALM      30.27F
YORK           CLOUDY    33  20  58 NE5       30.27F
$$

PAZ038>040-043-044-047-048-054-055-060>062-067>071-201800-
EASTERN PENNSYLVANIA

CITY           SKY/WX    TMP DP  RH WIND       PRES   REMARKS
SCRANTON       CLOUDY    31  21  66 N7        30.22F
MOUNT POCONO   CLOUDY    25  18  74 NW8       30.16F
ALLENTOWN      CLOUDY    33  22  63 CALM      30.26F
QUAKERTOWN*    CLOUDY    32  23  69 CALM      30.26F
READING        CLOUDY    33  20  58 NE5       30.26F
LANCASTER      CLOUDY    32  20  61 N5        30.27F
COATESVILLE    CLOUDY    34  23  64 CALM      30.25F
POTTSTOWN      CLOUDY    33  21  61 N7        30.27F
BLUE BELL      CLOUDY    34  23  64 CALM      30.26F
DOYLESTOWN     CLOUDY    31  21  66 N7        30.25F
WILLOW GROVE   NOT AVBL
NORTH PHILA    CLOUDY    34  19  54 NE9       30.29F
PHILADELPHIA   CLOUDY    34  20  56 NE8       30.29F
$$


USA.gov is the U.S. government's official web portal to all federal, state and local government web resources and services.